QZS-4 (MICHIBIKI-4)

Last updated on Wed Oct 29 2025 00:02:49 GMT+0000 (Coordinated Universal Time)

1 42965U 17062A 25301.49813594 -.00000297 00000+0 00000+0 0 9993 2 42965 40.2519 346.4538 0751565 270.4102 98.5619 1.00266487 29482
UTC large
Height (km)
Speed (km/s)
/
Latitude / Longitude
Inclination (degrees)
Orbital Period (minutes)
Azimuth
Elevation
Range (km)
Doppler Factor

Next 0 passes for location: London (51.5072 / 0.1276)

Sorry there are no passes over London.